Estación de La Unión Norte

Ultimos registro cada 15 minutos 74
Estación Fecha / Hora Temperatura Humedad Lluvia Velocidad Dirección Radiación Presion
74 La Unión Norte 07-05-2026 18:15 9,3 87,2 0 0 329 0,6 1020,6
73 La Unión Norte 07-05-2026 18:00 9,2 86,4 0 0 324 0,6 1020,6
72 La Unión Norte 07-05-2026 17:45 9,4 85,2 0 0 320 0,6 1020,6
71 La Unión Norte 07-05-2026 17:30 9,6 84,1 0 0 316 4,4 1020,7
70 La Unión Norte 07-05-2026 17:15 10 82 0 0 302 16,9 1020,6
69 La Unión Norte 07-05-2026 17:00 9,9 81,4 0 0 302 25,6 1020,9
68 La Unión Norte 07-05-2026 16:45 10,1 80,6 0 0 303 39,4 1020,9
67 La Unión Norte 07-05-2026 16:30 10,1 80,2 0 0 299 46,9 1021,2
66 La Unión Norte 07-05-2026 16:15 10,6 80,5 0 0 299 70,6 1021,3
65 La Unión Norte 07-05-2026 16:00 10,6 79,9 0 0 299 73,1 1021,4
64 La Unión Norte 07-05-2026 15:45 10,5 80,1 0 0 316 121,9 1021,4
63 La Unión Norte 07-05-2026 15:30 10,2 77,9 0 0 219 74,4 1021,9
62 La Unión Norte 07-05-2026 15:15 10,3 78,4 0 0 251 104,4 1021,7
61 La Unión Norte 07-05-2026 15:00 9,9 77,8 0 0 215 88,1 1022
60 La Unión Norte 07-05-2026 14:45 10,1 77,8 0 0 208 68,1 1021,9
59 La Unión Norte 07-05-2026 14:30 10 76,6 0 0 237 69,4 1021,9
58 La Unión Norte 07-05-2026 14:15 10,2 75,6 0 0 257 99,4 1021,9
57 La Unión Norte 07-05-2026 14:00 10,7 75 0 0 263 158,1 1022
56 La Unión Norte 07-05-2026 13:45 10,5 75,5 0 0 239 153,1 1022,2
55 La Unión Norte 07-05-2026 13:30 10,7 76,8 0 0 199 156,9 1022,6
54 La Unión Norte 07-05-2026 13:15 10,1 75,6 0 0 202 201,9 1022,5
53 La Unión Norte 07-05-2026 13:00 11 68 0 0 188 163,1 1022,4
52 La Unión Norte 07-05-2026 12:45 11,3 68,7 0 0 199 198,1 1022,4
51 La Unión Norte 07-05-2026 12:30 10,8 68,9 0 0 220 185,6 1022,4
50 La Unión Norte 07-05-2026 12:15 11,4 69,3 0 0 191 186,9 1022,5
49 La Unión Norte 07-05-2026 12:00 11,6 69,6 0 0 208 301,9 1022,6
48 La Unión Norte 07-05-2026 11:45 11,2 72,7 0 0 229 273,1 1022,7
47 La Unión Norte 07-05-2026 11:30 11,1 75,1 0 0 215 236,9 1022,8
46 La Unión Norte 07-05-2026 11:15 10,6 77,5 0 0 199 180,6 1022,9
45 La Unión Norte 07-05-2026 11:00 10,4 79,9 0 0 201 199,4 1022,9
44 La Unión Norte 07-05-2026 10:45 10,2 85,9 0 0 260 223,1 1022,9
43 La Unión Norte 07-05-2026 10:30 9,1 88,2 0 0 272 145,6 1022,7
42 La Unión Norte 07-05-2026 10:15 9 90,6 0 0 275 110,6 1023
41 La Unión Norte 07-05-2026 10:00 7,9 93,7 0 0 279 223,1 1023,1
40 La Unión Norte 07-05-2026 09:45 7,3 95 0 0 257 68,1 1023,3
39 La Unión Norte 07-05-2026 09:30 6,9 95,6 0 0 219 73,1 1023,4
38 La Unión Norte 07-05-2026 09:15 6,5 96,3 0 0 219 73,1 1023,1
37 La Unión Norte 07-05-2026 09:00 5,8 96,2 0 0 219 19,4 1023,1
36 La Unión Norte 07-05-2026 08:45 5,9 96,4 0 0 219 39,4 1023,2
35 La Unión Norte 07-05-2026 08:30 5,5 96,5 0 0 219 33,1 1022,8
34 La Unión Norte 07-05-2026 08:15 4,8 96,5 0 0 219 23,1 1023,1
33 La Unión Norte 07-05-2026 08:00 4,5 96,3 0 0 219 8,1 1022,9
32 La Unión Norte 07-05-2026 07:45 4,5 96,1 0 0 219 1,9 1022,7
31 La Unión Norte 07-05-2026 07:30 4,7 96,2 0 0 219 0,6 1022,6
30 La Unión Norte 07-05-2026 07:15 4,7 95,9 0 0 219 0,6 1022,8
29 La Unión Norte 07-05-2026 07:00 5,1 95,7 0 0 219 0,6 1022,7
28 La Unión Norte 07-05-2026 06:45 5,1 95,4 0 0 219 0,6 1022,6
27 La Unión Norte 07-05-2026 06:30 5 95,3 0 0 219 0,6 1022,2
26 La Unión Norte 07-05-2026 06:15 5 94,9 0 0 219 0,6 1022,4
25 La Unión Norte 07-05-2026 06:00 5,1 94,5 0 0 213 0,6 1022,4
24 La Unión Norte 07-05-2026 05:45 5,9 94,2 0 0 175 0,6 1022,5
23 La Unión Norte 07-05-2026 05:30 5,5 94,3 0 0 175 0,6 1022,4
22 La Unión Norte 07-05-2026 05:15 5,2 93,9 0 0 175 0,6 1022,2
21 La Unión Norte 07-05-2026 05:00 5,3 93,4 0 0 175 0,6 1022
20 La Unión Norte 07-05-2026 04:45 5,8 92,8 0 0 175 0,6 1021,9
19 La Unión Norte 07-05-2026 04:30 5,6 91,7 0 0 175 0,6 1021,6
18 La Unión Norte 07-05-2026 04:15 6,3 91 0 0 175 0,6 1021,5
17 La Unión Norte 07-05-2026 04:00 6,6 89,7 0 0 175 0,6 1021,2
16 La Unión Norte 07-05-2026 03:45 7,7 89,4 0 0 175 0,6 1021,2
15 La Unión Norte 07-05-2026 03:30 7,8 89,9 0 0 178 0,6 1021,4
14 La Unión Norte 07-05-2026 03:15 7,9 89,4 0 0 183 0,6 1021,3
13 La Unión Norte 07-05-2026 03:00 7,9 88,6 0 0 180 0,6 1021,1
12 La Unión Norte 07-05-2026 02:45 8,1 87,2 0 0 178 0,6 1020,8
11 La Unión Norte 07-05-2026 02:30 8,3 86,6 0 0 178 0,6 1020,7
10 La Unión Norte 07-05-2026 02:15 8,4 87,4 0 0 183 0,6 1020,4
9 La Unión Norte 07-05-2026 02:00 8,1 89,3 0 0 174 0,6 1020,2
8 La Unión Norte 07-05-2026 01:45 8 90,7 0 0 181 0,6 1020
7 La Unión Norte 07-05-2026 01:30 8 91,5 0 0 181 0,6 1019,9
6 La Unión Norte 07-05-2026 01:15 7,9 92,7 0 0 194 0,6 1019,8
5 La Unión Norte 07-05-2026 01:00 8 93,6 0 0 201 0,6 1019,6
4 La Unión Norte 07-05-2026 00:45 7,9 94,3 0 0 306 0,6 1019,6
3 La Unión Norte 07-05-2026 00:30 7,7 94,7 0 0 185 0,6 1019,6
2 La Unión Norte 07-05-2026 00:15 7,5 94,5 0 0 171 0,6 1019,5
1 La Unión Norte 07-05-2026 00:00 7,4 94,5 0 0 171 0,6 1019,3